GW5292 Weather Reports


Display with metric or nautical units.
time (UTC)temp
F
wind
direction
speed
MPH
gust
MPH
rain 1hr
in
rain 24hr
in
rain mn
in
humidity
%
barometer
mb
20260831150008 74 341 2.0 3.0 0.00 0.00 0.00 78 1020.6
20260831144515 73 9 0.0 2.0 0.00 0.00 0.00 81 1020.6
20260831143023 73 9 1.0 2.0 0.00 0.00 0.00 80 1020.7
20260831141529 73 9 1.0 2.0 0.00 0.00 0.00 80 1020.6
20260831140013 73 345 0.0 2.0 0.00 0.00 0.00 80 1020.8
20260831134513 73 352 0.0 2.0 0.00 0.00 0.00 81 1020.7
20260831133019 73 342 0.0 2.0 0.00 0.00 0.00 82 1020.8
20260831131528 72 23 0.0 2.0 0.00 0.00 0.00 1020.5
20260831130040 72 352 0.0 2.0 0.00 0.00 0.00 83 1020.7
20260831124512 71 59 0.0 2.0 0.00 0.00 0.00 85 1020.6
20260831123030 70 325 1.0 3.0 0.00 0.00 0.00 88 1020.5
20260831121527 70 73 0.0 1.0 0.00 0.00 0.00 89 1020.5
20260831120100 69 350 0.0 0.0 0.00 0.00 0.00 91 1020.5
20260831114534 68 350 0.0 0.0 0.00 0.00 0.00 93 1020.4
20260831113023 68 350 0.0 0.0 0.00 0.00 0.00 93 1020.2
20260831111525 67 350 0.0 0.0 0.00 0.00 0.00 93 1020.2
20260831110036 67 350 0.0 0.0 0.00 0.00 0.00 92 1019.9
20260831104537 67 350 0.0 0.0 0.00 0.00 0.00 92 1019.8
20260831103037 68 350 0.0 0.0 0.00 0.00 0.00 91 1019.7
20260831101523 68 350 0.0 0.0 0.00 0.00 0.00 92 1019.5
20260831100029 67 350 0.0 0.0 0.00 0.00 0.00 92 1019.5
20260831094531 67 350 0.0 0.0 0.00 0.00 0.00 92 1019.5
20260831093034 67 350 0.0 0.0 0.00 0.00 0.00 92 1019.3
20260831091533 67 333 0.0 0.0 0.00 0.00 0.00 92 1019.3
20260831090021 67 332 0.0 0.0 0.00 0.00 0.00 91 1019.3
20260831084530 68 9 0.0 0.0 0.00 0.00 0.00 91 1019.1
20260831083032 68 9 0.0 0.0 0.00 0.00 0.00 91 1019.2
20260831081543 69 9 0.0 0.0 0.00 0.00 0.00 91 1019.1
20260831080017 69 9 0.0 0.0 0.00 0.00 0.00 92 1019.2
20260831074526 69 9 0.0 0.0 0.00 0.00 0.00 90 1019.4
20260831073030 70 9 0.0 0.0 0.00 0.00 0.00 90 1019.2
20260831071534 70 9 0.0 0.0 0.00 0.00 0.00 90 1019.1
20260831070055 70 9 0.0 0.0 0.00 0.00 0.00 90 1019.2
20260831064528 70 9 0.0 0.0 0.00 0.00 0.00 90 1019.3
20260831063027 70 9 0.0 0.0 0.00 0.00 0.00 90 1019.2
20260831061512 70 9 0.0 0.0 0.00 0.00 0.00 90 1019.3
20260831060016 71 9 0.0 0.0 0.00 0.00 0.00 89 1019.4
20260831054521 71 9 0.0 0.0 0.00 0.00 0.00 89 1019.0
20260831053028 71 9 0.0 0.0 0.00 0.00 0.00 89 1018.9
20260831051507 72 9 0.0 0.0 0.00 0.00 0.00 88 1018.8
20260831050012 72 9 0.0 0.0 0.00 0.00 0.00 89 1018.9
20260831044519 72 9 0.0 0.0 0.00 0.00 0.00 88 1019.1
20260831043026 72 9 0.0 0.0 0.00 0.00 0.00 89 1019.1
20260831041533 72 9 0.0 0.0 0.00 0.00 0.00 90 1019.2
20260831040029 72 9 0.0 0.0 0.00 0.00 0.00 90 1019.3
20260831034516 72 9 0.0 0.0 0.00 0.00 0.00 90 1019.6
20260831033024 73 9 0.0 0.0 0.00 0.00 0.00 90 1019.4
20260831031527 73 9 0.0 0.0 0.00 0.00 0.00 90 1019.4
20260831030030 73 9 0.0 0.0 0.00 0.00 0.00 89 1019.5
20260831024511 74 9 0.0 0.0 0.00 0.00 0.00 1019.7
20260831023028 74 9 0.0 0.0 0.00 0.00 0.00 89 1019.5
20260831021545 74 9 0.0 0.0 0.00 0.00 0.00 87 1019.5
20260831020026 75 9 0.0 0.0 0.00 0.00 0.00 86 1019.5
20260831014532 75 9 0.0 0.0 0.00 0.00 0.00 86 1019.4
20260831013015 75 9 0.0 0.0 0.00 0.00 0.00 86 1019.4
20260831011525 75 194 0.0 0.0 0.00 0.00 0.00 87 1019.3
20260831010052 75 194 0.0 0.0 0.00 0.00 0.00 86 1019.1
20260831004536 75 194 0.0 0.0 0.00 0.00 0.00 86 1018.8
20260831003035 75 194 0.0 0.0 0.00 0.00 0.00 86 1018.5
20260831001530 76 194 0.0 0.0 0.00 0.00 0.00 85 1018.3
20260831000027 77 194 0.0 0.0 0.00 0.00 0.00 83 1018.3
20260830234531 77 194 0.0 0.0 0.00 0.00 0.00 82 1018.2
20260830233029 77 194 0.0 0.0 0.00 0.00 0.00 81 1018.5
20260830231534 78 194 0.0 0.0 0.00 0.00 0.00 80 1018.3
20260830230019 78 194 0.0 0.0 0.00 0.00 0.00 79 1018.3
20260830224529 79 194 0.0 0.0 0.00 0.00 0.00 77 1018.4
20260830223015 80 194 0.0 0.0 0.00 0.00 0.00 75 1018.3
20260830221511 81 194 0.0 2.0 0.00 0.00 0.00 76 1018.3
20260830220003 81 194 0.0 2.0 0.00 0.00 0.00 73 1018.2
20260830214501 81 194 0.0 2.0 0.00 0.00 0.00 73 1018.1
20260830213005 81 194 0.0 2.0 0.00 0.00 0.00 72 1018.2
20260830211518 82 190 1.0 5.0 0.00 0.00 0.00 71 1018.1
20260830210015 82 209 2.0 3.0 0.00 0.00 0.00 71 1018.1
20260830204503 82 194 0.0 3.0 0.00 0.00 0.00 72 1018.1
20260830203009 82 183 1.0 4.0 0.00 0.00 0.00 72 1018.2
20260830201508 82 167 1.0 2.0 0.00 0.00 0.00 74 1018.4
20260830200014 82 198 0.0 4.0 0.00 0.00 0.00 74 1018.5
20260830194519 82 177 1.0 6.0 0.00 0.00 0.00 74 1018.5
20260830193004 81 164 2.0 3.0 0.00 0.00 0.00 76 1018.9
20260830191507 81 202 2.0 2.0 0.00 0.00 0.00 76 1019.2
20260830190016 80 198 1.0 3.0 0.00 0.00 0.00 78 1019.4
20260830184517 81 196 2.0 4.0 0.00 0.00 0.00 74 1019.7
20260830183024 81 197 1.0 3.0 0.00 0.00 0.00 76 1019.6
20260830181505 80 352 1.0 3.0 0.00 0.00 0.00 80 1019.9
20260830180010 79 194 0.0 4.0 0.00 0.00 0.00 81 1020.2
20260830174523 78 170 1.0 2.0 0.00 0.00 0.00 81 1020.4
20260830173036 77 188 0.0 2.0 0.00 0.00 0.00 81 1020.6
20260830171530 77 171 1.0 3.0 0.00 0.00 0.00 79 1020.8
20260830170006 77 178 1.0 4.0 0.00 0.00 0.00 82 1020.9
20260830164510 75 206 1.0 2.0 0.00 0.00 0.00 83 1020.8
20260830163015 72 134 0.0 2.0 0.00 0.00 0.00 85 1020.8
20260830161524 69 208 0.0 2.0 0.00 0.00 0.00 86 1021.0
20260830160034 68 252 1.0 2.0 0.00 0.00 0.00 85 1021.4
20260830154509 68 9 1.0 2.0 0.00 0.00 0.00 86 1021.7
20260830153018 67 229 0.0 1.0 0.00 0.00 0.00 86 1021.7
20260830151521 66 348 0.0 2.0 0.00 0.00 0.00 86 1021.8